Pila Airport

Jump to: basic info | weather | runways | comments

Related pages: nearby airports | nearby navaids | notams | map

Basic information (top)

Codes: EPPI
Location: lon 53.169998, lat 16.712500, elev 259 ft / 79 m msl
Status: small_airport

Weather (top)

Current conditions for Poznań-Ławica Airport 45nm (84km) S (rec'd 2014/08/21 00:00Z):

EPPO 210000Z 22003KT CAVOK 11/07 Q1015

Airport forecast for Poznań-Ławica Airport 45nm (84km) S (rec'd 2014/08/20 00:37Z):

TAF EPPO 202330Z 2100/2124 25005KT CAVOK 
      TEMPO 2110/2117 25015KT SCT035CB

Runways (top)

03/21: 7,876 x 195 ft (2,401 x 59 m) — other (PEM) — lighted

Latest comments (top)

No comments yet for Pila Airport

More... (top)

See also NOTAMs and nearby airports and navaids, or visit the Pila Airport page at the main OurAirports website..